Tracking 19564 objects as of 20-Mar-2019
HD Live streaming from Space Station
objects crossing your sky now

FENGYUN 1C DEB

Track FENGYUN 1C DEB now!
10-day predictions


NORAD ID: 31608
Int'l Code: 1999-025BZN
Perigee: 552.0 km
Apogee: 870.0 km
Inclination: 98.6 °
Period: 98.9 minutes
Semi major axis: 7082 km
RCS: 0.0149 m2 (small)
Launch date: May 10, 1999
Source: People's Republic of China (PRC)
Launch site: Taiyaun Space Center, China (TSC)

Note: This is SATELLITE DEBRIS
aabbcc
Your satellite tracking list
Your tracking list is empty




NASA's NSSDC Master Catalog

Two Line Element Set (TLE):
1 31608U 99025BZN 19068.90169867 +.00000291 +00000-0 +56396-4 0  9998
2 31608 098.5722 093.5765 0224530 179.4993 180.6472 14.56687041625043
Source of the keplerian elements: AFSPC